Weather History for KPSK - September, 2013

Change the Weather History Date:

Monday, September 16, 2013

  Actual Average (KBCB) Record (KBCB)
Temperature  
Mean Temperature 62 °F 63 °F  
Max Temperature 71 °F 75 °F 91 °F (1998)
Min Temperature 53 °F 51 °F 35 °F (1985)
Degree Days  
Heating Degree Days 3 3  
Month to date heating degree days 30  
Since 1 July heating degree days 48  
Cooling Degree Days 0 2  
Month to date cooling degree days 45  
Year to date cooling degree days 557  
Growing Degree Days 12 (Base 50)    
Moisture  
Dew Point 57 °F    
Average Humidity 87    
Maximum Humidity 100    
Minimum Humidity 60    
Precipitation  
Precipitation 0.00 in 0.11 in 2.19 in (1989)
Month to date precipitation 1.67  
Year to date precipitation 30.86  
Snow  
Snow 0.00 in - - ()
Month to date snowfall  
Since 1 July snowfall  
Since 1 September snowfall  
Snow Depth -    
Sea Level Pressure  
Sea Level Pressure 30.23 in    
Wind  
Wind Speed 2 mph (WNW)    
Max Wind Speed 8 mph    
Max Gust Speed -    
Visibility 9 miles    
Events Rain    
T = Trace of Precipitation, MM = Missing Value Source: NWS Daily Summary

Daily Weather History Graph

Daily Weather History Graph

Search for Another Location

Airport or City:

Trip Planner

Search our weather history database for the weather conditions in past years. The results will help you decide how hot, cold, wet, or windy it might be!

Date:

Astronomy

Sep. 16, 2013 Rise Set
Actual Time 7:05 AM EDT 7:28 PM EDT
Civil Twilight 6:39 AM EDT 7:54 PM EDT
Nautical Twilight 6:09 AM EDT 8:25 PM EDT
Astronomical Twilight 5:37 AM EDT 8:56 PM EDT
Moon 5:33 PM EDT (9/16) 3:53 AM EDT (9/16)
Length of Visible Light 13h 14m
Length of Day
12h 22m
Waxing Gibbous, 90% of the Moon is Illuminated
Sep 16
Waxing Gibbous
Sep 19
Full
Sep 26
Last Quarter
Oct 4
New
Oct 11
First Quarter

Hourly Weather History & Observations

Time (EDT) Temp. Dew Point Humidity Pressure Visibility Wind Dir Wind Speed Gust Speed Precip Events Conditions
12:15 AM 55.4 °F 55.4 °F 100% 30.21 in 10.0 mi Calm Calm - N/A   Unknown
12:35 AM 57.2 °F 57.2 °F 100% 30.21 in 7.0 mi Calm Calm - N/A   Unknown
12:55 AM 55.4 °F 55.4 °F 100% 30.21 in 5.0 mi Calm Calm - N/A   Mist
1:15 AM 55.4 °F 55.4 °F 100% 30.21 in 5.0 mi Calm Calm - N/A   Mist
1:35 AM 55.4 °F 55.4 °F 100% 30.21 in 7.0 mi Calm Calm - N/A   Unknown
1:55 AM 55.4 °F 55.4 °F 100% 30.20 in 5.0 mi Calm Calm - N/A   Mist
2:15 AM 55.4 °F 55.4 °F 100% 30.21 in 7.0 mi Calm Calm - N/A   Unknown
2:35 AM 55.4 °F 55.4 °F 100% 30.21 in 5.0 mi Calm Calm - N/A   Mist
2:55 AM 55.4 °F 55.4 °F 100% 30.20 in 7.0 mi Calm Calm - N/A   Unknown
3:15 AM 53.6 °F 53.6 °F 100% 30.20 in 4.0 mi Calm Calm - N/A   Mist
3:35 AM 53.6 °F 53.6 °F 100% 30.20 in - Calm Calm - N/A   Unknown
3:55 AM 53.6 °F 53.6 °F 100% 30.19 in 5.0 mi Calm Calm - N/A   Mist
4:15 AM 55.4 °F 55.4 °F 100% 30.19 in 7.0 mi Calm Calm - N/A   Unknown
4:35 AM 53.6 °F 53.6 °F 100% 30.19 in 5.0 mi Calm Calm - N/A   Mist
4:55 AM 53.6 °F 53.6 °F 100% 30.19 in 5.0 mi Calm Calm - N/A   Mist
5:15 AM 55.4 °F 55.4 °F 100% 30.19 in 7.0 mi Calm Calm - N/A   Unknown
5:35 AM 55.4 °F 55.4 °F 100% 30.20 in 7.0 mi SSW 3.5 mph - N/A   Unknown
5:55 AM 55.4 °F 55.4 °F 100% 30.19 in 7.0 mi WSW 3.5 mph - N/A   Unknown
6:15 AM 53.6 °F 53.6 °F 100% 30.20 in 5.0 mi Calm Calm - N/A   Mist
6:35 AM 53.6 °F 53.6 °F 100% 30.19 in 5.0 mi Calm Calm - N/A   Mist
6:55 AM 55.4 °F 55.4 °F 100% 30.20 in 5.0 mi Calm Calm - N/A   Mist
7:15 AM 55.4 °F 55.4 °F 100% 30.20 in 5.0 mi SW 4.6 mph - N/A   Mist
7:35 AM 55.4 °F 55.4 °F 100% 30.20 in 7.0 mi Calm Calm - N/A   Unknown
7:55 AM 57.2 °F 57.2 °F 100% 30.20 in 10.0 mi West 3.5 mph - N/A   Unknown
8:15 AM 57.2 °F 57.2 °F 100% 30.20 in 10.0 mi WSW 3.5 mph - N/A   Unknown
8:35 AM 60.8 °F 60.8 °F 100% 30.20 in 10.0 mi SW 3.5 mph - N/A   Unknown
8:55 AM 62.6 °F 62.6 °F 100% 30.21 in 10.0 mi SW 6.9 mph - N/A   Unknown
9:15 AM 62.6 °F 62.6 °F 100% 30.21 in 10.0 mi SW 3.5 mph - N/A   Scattered Clouds
9:35 AM 64.4 °F 62.6 °F 94% 30.22 in 10.0 mi WSW 3.5 mph - N/A   Scattered Clouds
9:55 AM 68.0 °F 62.6 °F 83% 30.22 in 10.0 mi West 5.8 mph - N/A   Clear
10:15 AM 69.8 °F 60.8 °F 73% 30.22 in 10.0 mi West 6.9 mph - N/A   Clear
10:35 AM 71.6 °F 60.8 °F 69% 30.23 in 10.0 mi West 6.9 mph - N/A   Scattered Clouds
10:55 AM 69.8 °F 60.8 °F 73% 30.23 in 10.0 mi WSW 6.9 mph - N/A   Mostly Cloudy
11:15 AM 68.0 °F 60.8 °F 78% 30.23 in 10.0 mi West 5.8 mph - N/A   Mostly Cloudy
11:35 AM 69.8 °F 60.8 °F 73% 30.23 in 10.0 mi West 4.6 mph - N/A   Scattered Clouds
11:55 AM 69.8 °F 60.8 °F 73% 30.23 in 10.0 mi NW 3.5 mph - N/A   Mostly Cloudy
12:15 PM 66.2 °F 62.6 °F 88% 30.22 in 10.0 mi West 4.6 mph - N/A Rain Light Rain
12:35 PM 69.8 °F 62.6 °F 78% 30.22 in 10.0 mi NNW 3.5 mph - N/A   Scattered Clouds
12:55 PM 69.8 °F 60.8 °F 73% 30.22 in 10.0 mi West 6.9 mph - N/A   Scattered Clouds
1:15 PM 69.8 °F 60.8 °F 73% 30.22 in 10.0 mi NNW 4.6 mph - N/A   Scattered Clouds
1:35 PM 66.2 °F 60.8 °F 83% 30.22 in 10.0 mi Calm Calm - N/A   Overcast
1:55 PM 66.2 °F 60.8 °F 83% 30.22 in 10.0 mi Calm Calm - N/A   Overcast
2:15 PM 68.0 °F 60.8 °F 78% 30.22 in 10.0 mi Calm Calm - N/A   Overcast
2:35 PM 69.8 °F 57.2 °F 64% 30.21 in 10.0 mi West 4.6 mph - N/A   Overcast
2:55 PM 69.8 °F 59.0 °F 68% 30.20 in 10.0 mi West 5.8 mph - N/A   Scattered Clouds
3:15 PM 71.6 °F 57.2 °F 60% 30.20 in 10.0 mi West 6.9 mph - N/A   Scattered Clouds
3:35 PM 69.8 °F 57.2 °F 64% 30.20 in 10.0 mi NNW 4.6 mph - N/A   Mostly Cloudy
3:55 PM 69.8 °F 57.2 °F 64% 30.20 in 10.0 mi NW 4.6 mph - N/A   Overcast
4:15 PM 66.2 °F 57.2 °F 73% 30.20 in 10.0 mi North 6.9 mph - N/A   Overcast
4:35 PM 66.2 °F 57.2 °F 73% 30.21 in 10.0 mi North 6.9 mph - N/A   Overcast
4:55 PM 66.2 °F 57.2 °F 73% 30.22 in 10.0 mi North 5.8 mph - N/A   Overcast
5:15 PM 64.4 °F 57.2 °F 77% 30.22 in 10.0 mi NNW 4.6 mph - N/A   Overcast
5:35 PM 64.4 °F 57.2 °F 77% 30.22 in 10.0 mi NNW 4.6 mph - N/A   Overcast
5:55 PM 64.4 °F 57.2 °F 77% 30.22 in 10.0 mi NNW 5.8 mph - N/A   Mostly Cloudy
6:15 PM 64.4 °F 55.4 °F 73% 30.23 in 10.0 mi North 5.8 mph - N/A   Scattered Clouds
6:35 PM 64.4 °F 55.4 °F 73% 30.24 in 10.0 mi NNW 5.8 mph - N/A   Scattered Clouds
6:55 PM 64.4 °F 55.4 °F 73% 30.24 in 10.0 mi North 8.1 mph - N/A   Clear
7:15 PM 62.6 °F 55.4 °F 77% 30.24 in 10.0 mi North 3.5 mph - N/A   Clear
7:35 PM 62.6 °F 55.4 °F 77% 30.25 in 10.0 mi North 4.6 mph - N/A   Clear
7:55 PM 62.6 °F 55.4 °F 77% 30.25 in 10.0 mi North 5.8 mph - N/A   Clear
8:15 PM 62.6 °F 55.4 °F 77% 30.26 in 10.0 mi North 4.6 mph - N/A   Clear
8:35 PM 60.8 °F 55.4 °F 82% 30.27 in 10.0 mi North 5.8 mph - N/A   Clear
8:55 PM 60.8 °F 55.4 °F 82% 30.28 in 10.0 mi North 4.6 mph - N/A   Clear
9:15 PM 60.8 °F 53.6 °F 77% 30.28 in 10.0 mi Calm Calm - N/A   Clear
9:35 PM 59.0 °F 53.6 °F 82% 30.29 in 10.0 mi Calm Calm - N/A   Clear
9:55 PM 57.2 °F 53.6 °F 88% 30.29 in 10.0 mi Calm Calm - N/A   Clear
10:15 PM 57.2 °F 53.6 °F 88% 30.30 in 10.0 mi Calm Calm - N/A   Clear
10:35 PM 55.4 °F 53.6 °F 94% 30.30 in 10.0 mi Calm Calm - N/A   Unknown
10:55 PM 53.6 °F 53.6 °F 100% 30.31 in 10.0 mi Calm Calm - N/A   Unknown
11:15 PM 53.6 °F 53.6 °F 100% 30.31 in 10.0 mi Calm Calm - N/A   Unknown
11:35 PM 55.4 °F 53.6 °F 94% 30.31 in 10.0 mi North 3.5 mph - N/A   Unknown
11:55 PM 55.4 °F 53.6 °F 94% 30.31 in 10.0 mi Calm Calm - N/A   Unknown